"Pseudo-MPEC" for gb00736

Created 2024 Sep 8 6:22:30 UT using Find_Orb

Click here for an explanation of pseudo-MPECs

 
 Astrometry: 
     gb00736*KC2024 09 01.85684 22 24 54.59 -05 21 44.3    ~91LM 19.3 GXNEOCPL51
     gb00736 KC2024 09 01.85810 22 24 48.76 -05 23 01.2    ~91LM 18.7 GXNEOCPL51
     gb00736 KC2024 09 01.85935 22 24 42.80 -05 24 17.2    ~91LM 18.9 GXNEOCPL51
     gb00736 KC2024 09 01.88277 22 22 50.29 -05 48 32.6    ~91Lb 19.1 GXNEOCPL51
     gb00736 KC2024 09 01.88353 22 22 46.55 -05 49 21.6    ~91Lb 18.6 GXNEOCPL51
     gb00736 KC2024 09 01.88430 22 22 42.84 -05 50 10.1    ~91Lb 18.7 GXNEOCPL51
     gb00736 KB2024 09 01.96443022 16 47.33 -07 19 29.2    ~920q 18.1 GXNEOCP958
     gb00736 KC2024 09 01.96627022 16 00.54 -07 23 12.4    ~920M 18.3 GVNEOCPK88
     gb00736 KB2024 09 01.96649222 16 35.83 -07 21 56.0    ~920q 18.3 GXNEOCP958
     gb00736 KC2024 09 01.96731622 15 54.78 -07 24 25.4    ~920M 19.1 GVNEOCPK88
     gb00736 KC2024 09 01.96851222 15 48.17 -07 25 50.4    ~920M 18.4 GVNEOCPK88
     gb00736 KC2024 09 01.97445 22 14 49.76 -07 31 23.6    ~91Nq 18.6 GXNEOCPL51
     gb00736 KC2024 09 01.97523 22 14 45.51 -07 32 19.2    ~91Nq 18.4 GXNEOCPL51
     gb00736 KC2024 09 01.97607 22 14 40.82 -07 33 18.5    ~91Nq 18.2 GXNEOCPL51
     gb00736 KB2024 09 02.01824322 11 34.30 -08 26 21.8    ~9217 19.2 GXNEOCPI93
     gb00736 KB2024 09 02.02145522 11 14.89 -08 30 29.5    ~9217 18.9 GXNEOCPI93
     gb00736 KB2024 09 02.02461922 10 55.65 -08 34 35.1    ~9217 17.9 GXNEOCPI93
     gb00736 KC2024 09 02.20656821 52 16.83 -13 07 01.1    ~925M 18.4 GVNEOCPH21
     gb00736 KC2024 09 02.20763021 52 07.90 -13 08 51.5    ~925M 18.3 GVNEOCPH21
     gb00736 KC2024 09 02.20869221 51 58.93 -13 10 42.4    ~925M 18.6 GVNEOCPH21
     gb00736 KC2024 09 02.20975421 51 49.91 -13 12 33.5    ~925M 18.3 GVNEOCPH21
     gb00736 KC2024 09 02.21187621 51 31.89 -13 16 16.1    ~925M 18.3 GVNEOCPH21
     gb00736 KC2024 09 02.21293921 51 22.80 -13 18 07.6    ~925M 18.4 GVNEOCPH21

Station data:
(958) Observatoire de Dax  (N43.693381 W1.030530)  France.  Observer P.
   Dupouy. 0.32-m Schmidt-Cassegrain.
(H21) Astronomical Research Observatory, Westfield  (N39.483054 W87.968270)
   US/Illinois.  Observer R. Holmes. Measurers S. Foglia, L. Buzzi, T.
   Linder, R. Holmes. 0.76-m f/3.0 astrograph + CCD0.81-m f/4.0 astrograph +
   CCD0.61-m f/4.5 astrograph + CCD0.40-m f/5.32 astrograph + CCD.
(I93) St Pardon de Conques  (N44.558670 W0.202960)  France.  Observers F.
   Losse, W. D'Anna. Measurer F. Losse. 0.40-m f/3.7 reflector + CCD.
(K88) GINOP-KHK, Piszkéstető  (N47.917453 E19.893670)  Hungary.  Observer K.
   Sárneczky. 0.60-m Schmidt + CCD.
(L51) MARGO, Nauchnij  (N44.729397 E34.016400)  Ukraine.  Observer G. Borisov.
    0.4-m f/2.3 astrograph + CCD.

Orbital elements:  gb00736
   Perigee 2024 Sep 2.89751 +/- 8.31e-5 TT = 21:32:25 (JD 2460556.39751)
Epoch 2024 Sep  2.0 TT = JDT 2460555.5                           AutoNEOCP
q316112.345 +/- 182                 (J2000 equator)
H   30.30 G 0.15                    Peri.  249.34003 +/- 0.008
                                    Node   161.21435 +/- 0.00017
e  32.7428452 +/- 0.0444            Incl.  135.64062 +/- 0.00057
From 23 observations 2024 Sept. 1-2 (8.5 hr); mean residual 0".48
Residuals in arcseconds: 
240901 L51  .55-  .26-    240901 958  .69-  .23+    240902 I93  .24-  .07-    
240901 L51  .74+  .28-    240901 K88  .60+  .74+    240902 H21  .24-  .15-    
240901 L51  .41-  .12+    240901 K88  .65+  1.1+    240902 H21  .20+  .15+    
240901 L51  .05-  .67+    240901 L51  1.3-  1.0-    240902 H21  .32+  .12+    
240901 L51  .28-  .29-    240901 L51  .08+  .79-    240902 H21  .01-  .05+    
240901 L51  .74+  .07-    240901 L51  .05-  .13+    240902 H21  .18+  .21-    
240901 958  .18+  .51-    240902 I93  .32-  .13+    240902 H21  .23-  .08-    
240901 K88  .39+  .77-    240902 I93  .06-  .29+    

Ephemerides (geocentric):
Date (UTC) HH   RA             Dec           delta  r     elong  mag " sig PA
---- --------  ------------   ------------  ------ ------ -----  --- --------
2024 09 08 06  11 59 01.403   -17 15 34.72  .01980 .98972  26.2 30?? 18.9 132
2024 09 08 07  11 58 52.098   -17 13 35.23  .01995 .98956  26.1 30?? 18.9 132
2024 09 08 08  11 58 42.932   -17 11 37.42  .02011 .98941  26.0 30?? 18.9 132
2024 09 08 09  11 58 33.902   -17 09 41.24  .02026 .98925  25.9 31?? 18.9 132
2024 09 08 10  11 58 25.004   -17 07 46.65  .02041 .98909  25.9 31?? 18.9 132
2024 09 08 11  11 58 16.235   -17 05 53.63  .02056 .98893  25.8 31?? 18.9 132
2024 09 08 12  11 58 07.592   -17 04 02.14  .02072 .98877  25.7 31?? 18.9 132
2024 09 08 13  11 57 59.074   -17 02 12.15  .02087 .98861  25.6 31?? 18.9 132
2024 09 08 14  11 57 50.676   -17 00 23.61  .02102 .98845  25.6 31?? 18.9 132
2024 09 08 15  11 57 42.396   -16 58 36.50  .02117 .98829  25.5 31?? 18.9 132
2024 09 08 16  11 57 34.231   -16 56 50.80  .02133 .98813  25.4 31?? 18.9 132
2024 09 08 17  11 57 26.180   -16 55 06.46  .02148 .98797  25.3 31?? 18.9 132
2024 09 08 18  11 57 18.240   -16 53 23.46  .02163 .98781  25.3 31?? 18.9 132
2024 09 08 19  11 57 10.407   -16 51 41.78  .02178 .98765  25.2 31?? 18.9 132
2024 09 08 20  11 57 02.681   -16 50 01.37  .02194 .98749  25.1 31?? 18.9 132
2024 09 08 21  11 56 55.058   -16 48 22.23  .02209 .98733  25.1 31?? 18.9 132
2024 09 08 22  11 56 47.537   -16 46 44.32  .02224 .98717  25.0 31?? 18.9 132
2024 09 08 23  11 56 40.115   -16 45 07.61  .02239 .98701  24.9 31?? 18.9 132
2024 09 09 00  11 56 32.790   -16 43 32.09  .02255 .98685  24.9 31?? 18.9 132
2024 09 09 01  11 56 25.561   -16 41 57.72  .02270 .98669  24.8 31?? 18.9 132
2024 09 09 02  11 56 18.425   -16 40 24.48  .02285 .98653  24.7 31?? 18.9 132
2024 09 09 03  11 56 11.380   -16 38 52.36  .02300 .98637  24.7 31?? 18.9 132
2024 09 09 04  11 56 04.425   -16 37 21.32  .02316 .98621  24.6 31?? 18.9 132
2024 09 09 05  11 55 57.558   -16 35 51.35  .02331 .98605  24.5 31?? 18.9 132
2024 09 09 06  11 55 50.777   -16 34 22.43  .02346 .98589  24.5 31?? 18.9 132
2024 09 09 07  11 55 44.080   -16 32 54.53  .02362 .98572  24.4 31?? 18.9 132
2024 09 09 08  11 55 37.466   -16 31 27.64  .02377 .98556  24.3 31?? 18.9 132
2024 09 09 09  11 55 30.933   -16 30 01.74  .02392 .98540  24.3 31?? 18.8 132
2024 09 09 10  11 55 24.480   -16 28 36.80  .02407 .98524  24.2 31?? 18.8 132
2024 09 09 11  11 55 18.105   -16 27 12.80  .02423 .98508  24.1 31?? 18.8 132
2024 09 09 12  11 55 11.806   -16 25 49.74  .02438 .98492  24.1 31?? 18.8 132
2024 09 09 13  11 55 05.582   -16 24 27.59  .02453 .98476  24.0 31?? 18.8 132
2024 09 09 14  11 54 59.431   -16 23 06.33  .02469 .98460  24.0 31?? 18.8 132
2024 09 09 15  11 54 53.353   -16 21 45.96  .02484 .98444  23.9 31?? 18.8 132
2024 09 09 16  11 54 47.346   -16 20 26.44  .02499 .98428  23.8 31?? 18.8 132
2024 09 09 17  11 54 41.408   -16 19 07.77  .02514 .98411  23.8 31?? 18.8 132
2024 09 09 18  11 54 35.539   -16 17 49.93  .02530 .98395  23.7 32?? 18.8 132
2024 09 09 19  11 54 29.736   -16 16 32.90  .02545 .98379  23.6 32?? 18.8 132
2024 09 09 20  11 54 23.999   -16 15 16.67  .02560 .98363  23.6 32?? 18.8 132
2024 09 09 21  11 54 18.327   -16 14 01.23  .02576 .98347  23.5 32?? 18.8 132
2024 09 09 22  11 54 12.719   -16 12 46.55  .02591 .98331  23.5 32?? 18.8 132
2024 09 09 23  11 54 07.172   -16 11 32.64  .02606 .98314  23.4 32?? 18.8 132
2024 09 10 00  11 54 01.687   -16 10 19.46  .02622 .98298  23.4 32?? 18.8 132
2024 09 10 01  11 53 56.262   -16 09 07.02  .02637 .98282  23.3 32?? 18.8 132
2024 09 10 02  11 53 50.896   -16 07 55.29  .02652 .98266  23.2 32?? 18.8 132
2024 09 10 03  11 53 45.588   -16 06 44.27  .02668 .98250  23.2 32?? 18.8 132
2024 09 10 04  11 53 40.337   -16 05 33.94  .02683 .98234  23.1 32?? 18.8 132
2024 09 10 05  11 53 35.142   -16 04 24.29  .02698 .98217  23.1 32?? 18.8 132